Time_in_sec,Mx,My,Mz
1312468259.52308726,0.17150339,0.53061128,-0.42574081
1312468259.57178140,0.17222120,0.53090358,-0.42974868
1312468259.62309813,0.17225906,0.53253508,-0.42665586
1312468259.67221355,0.17313105,0.53100628,-0.42834762
1312468259.72321153,0.17239119,0.53102386,-0.42920011
1312468259.77118134,0.17331238,0.53176421,-0.42753336
1312468259.82112002,0.16989167,0.52885526,-0.42757484
1312468259.87234402,0.17268486,0.53088927,-0.42891222
1312468259.92337847,0.16970024,0.53142643,-0.42814496
1312468259.97239900,0.17421947,0.53304398,-0.42829987
1312468260.02024221,0.17194577,0.53100979,-0.42747200
1312468260.07113647,0.17145365,0.53233409,-0.43088326
1312468260.12026572,0.17206015,0.52986103,-0.42799634
1312468260.17107892,0.17236027,0.52975005,-0.42986685
1312468260.22308683,0.17145742,0.53102881,-0.42871463
1312468260.27109313,0.17407100,0.53125602,-0.42869973
1312468260.32316041,0.17138310,0.53127420,-0.42764151
1312468260.37125707,0.17203449,0.53101766,-0.42827636
1312468260.42309237,0.17080876,0.53010827,-0.42591217
1312468260.47122383,0.17331851,0.53099525,-0.42752719
1312468260.52021527,0.17199615,0.53087217,-0.42665857
1312468260.57221866,0.17215818,0.53076285,-0.42853710
1312468260.62321210,0.17246626,0.53088146,-0.42798048
1312468260.66345143,0.17280731,0.53201753,-0.42675507
1312468260.72338533,0.17318761,0.53112346,-0.42740086
1312468260.77221370,0.17299606,0.53164715,-0.42822537
1312468260.82307601,0.17117369,0.53011292,-0.42670053
1312468260.87192035,0.17206848,0.53190690,-0.42760655
1312468260.92500687,0.17369756,0.53148419,-0.42575508
1312468260.97217488,0.17238501,0.53076905,-0.42933345
1312468261.02411556,0.16944532,0.53101689,-0.42559335
1312468261.07110882,0.17202292,0.53163487,-0.42612311
1312468261.12314844,0.17190048,0.53050661,-0.42828026
1312468261.17112303,0.17183132,0.53113484,-0.42707482
1312468261.22408748,0.17239597,0.52959043,-0.42703044
1312468261.27222371,0.17202008,0.53076446,-0.42854512
1312468261.32411408,0.17306155,0.53084195,-0.42497766
1312468261.37214851,0.17178303,0.53203988,-0.42775902
1312468261.42307925,0.17200051,0.53012836,-0.42894617
1312468261.47214746,0.17334013,0.53137499,-0.42712408
1312468261.52313590,0.17208353,0.53021562,-0.42529944
1312468261.57128406,0.17277472,0.53281641,-0.42946121
1312468261.62321496,0.17014323,0.52988046,-0.42783779
1312468261.66421986,0.17149441,0.53050989,-0.42816892
1312468261.72352457,0.17331038,0.53304428,-0.42740822
1312468261.77111530,0.17141505,0.53241980,-0.42697373
1312468261.82310724,0.17112480,0.53045648,-0.42292845
1312468261.87112236,0.17197980,0.53292280,-0.42667496
1312468261.92309713,0.17059667,0.53114784,-0.42701161
1312468261.97116566,0.17421915,0.53225142,-0.42613536
1312468262.02323365,0.17186736,0.53176779,-0.42640296
1312468262.07123041,0.17232074,0.53201139,-0.42570397
1312468262.12323117,0.17265469,0.52971852,-0.42728624
1312468262.17122149,0.17291035,0.53023112,-0.42754510
1312468262.22308755,0.17121595,0.53202432,-0.42576811
1312468262.27161813,0.17178921,0.53229463,-0.42762566
1312468262.32311893,0.17010590,0.52960688,-0.42621899
1312468262.37175941,0.17162021,0.53102249,-0.42830041
1312468262.42311215,0.17339873,0.53123581,-0.42617527
1312468262.47121048,0.17301655,0.53010762,-0.42807764
1312468262.52455235,0.17035431,0.52896911,-0.42673939
1312468262.57111049,0.17294981,0.53369278,-0.42701051
1312468262.62310839,0.17282701,0.53177142,-0.42700315
1312468262.67114282,0.17239508,0.53088367,-0.42742631
1312468262.72346711,0.17111465,0.53164852,-0.42575210
1312468262.77124286,0.17414564,0.53343129,-0.42774883
1312468262.82420874,0.16930819,0.52986658,-0.42572755
1312468262.87135291,0.17326166,0.53110927,-0.42618224
1312468262.92425919,0.17167574,0.53126776,-0.42735466
1312468262.97119927,0.17280526,0.53227389,-0.42675713
1312468263.02027607,0.17008327,0.52935529,-0.42662311
1312468263.07121277,0.17240949,0.53113687,-0.42715752
1312468263.12345481,0.17248178,0.53114790,-0.42823294
1312468263.16322136,0.17365921,0.53319395,-0.42898971
1312468263.22324896,0.17373732,0.53164297,-0.42789397
1312468263.27120352,0.17288901,0.53204042,-0.42821604
1312468263.32361937,0.17078577,0.52897382,-0.42696548
1312468263.37113762,0.17152227,0.53216815,-0.42750528
1312468263.42014670,0.17165010,0.53242445,-0.42763472
1312468263.47206378,0.17080598,0.53026164,-0.42820698
1312468263.52421117,0.17251454,0.52997643,-0.42729631
1312468263.57122779,0.17141020,0.53282946,-0.42927060
1312468263.62011504,0.17211755,0.53124630,-0.42515117
1312468263.67122245,0.17163233,0.52962554,-0.42881048
1312468263.72350311,0.17216022,0.53064781,-0.42905745
1312468263.77111602,0.17117475,0.52989465,-0.42951372
1312468263.82335186,0.17159609,0.53024763,-0.42706302
1312468263.87159705,0.17325300,0.53217322,-0.42900559
1312468263.92013288,0.17100856,0.52949280,-0.42776611
1312468263.97192979,0.17261703,0.53027564,-0.43064743
1312468264.02324533,0.16974688,0.52976692,-0.42811123
1312468264.07215810,0.16990699,0.53196192,-0.42973778
1312468264.12310314,0.17119740,0.53014630,-0.42910948
1312468264.17213011,0.17170580,0.53258032,-0.42950320
1312468264.22311187,0.16931602,0.52977490,-0.42840615
1312468264.27222776,0.17347741,0.52959508,-0.42789361
1312468264.32310987,0.17139626,0.53077304,-0.42802316
1312468264.37197137,0.17212933,0.53039771,-0.42959711
1312468264.42422509,0.17152406,0.53000546,-0.42827985
1312468264.47221398,0.17369105,0.53229183,-0.42857626
1312468264.52307439,0.16951820,0.52978587,-0.42960897
1312468264.57207751,0.17217362,0.53102922,-0.42878968
1312468264.62311578,0.17010790,0.53233230,-0.42864940
1312468264.67223477,0.17092527,0.53066075,-0.42899421
1312468264.72417021,0.17078920,0.53040600,-0.42900020
1312468264.77112961,0.17150483,0.53118598,-0.43071878
1312468264.82422328,0.17259282,0.52959061,-0.42659545
1312468264.87121081,0.17355588,0.52986085,-0.42883563
1312468264.92427611,0.17216942,0.52935302,-0.42852581
1312468264.97112107,0.17163672,0.53204310,-0.42790243
1312468265.02321672,0.17224766,0.53087366,-0.42704871
1312468265.07120085,0.17306834,0.53165817,-0.42930055
1312468265.12311983,0.17077716,0.52975529,-0.42874447
1312468265.16325855,0.17283452,0.53269082,-0.42903376
1312468265.22329307,0.17269622,0.52962047,-0.42942342
1312468265.27121234,0.17277245,0.53139788,-0.42794809
1312468265.32320309,0.17095581,0.52909410,-0.42641675
1312468265.37108517,0.17352103,0.53217155,-0.42912495
1312468265.42313623,0.17120568,0.53116876,-0.42884684
1312468265.47121191,0.17125700,0.52885491,-0.42828664
1312468265.52320337,0.17099527,0.53115934,-0.42777947
1312468265.57107830,0.17253453,0.53154659,-0.42958227
1312468265.62311196,0.17045633,0.53029203,-0.42996320
1312468265.66422844,0.17328371,0.52935135,-0.42884758
1312468265.72308683,0.17284678,0.53115249,-0.42902145
1312468265.77121043,0.17375900,0.53304678,-0.42736354
1312468265.82396936,0.17084447,0.52985859,-0.42588922
1312468265.87120223,0.17345716,0.53090376,-0.43033358
1312468265.92321157,0.17120358,0.53040111,-0.42897612
1312468265.97120142,0.17122862,0.53221315,-0.43060762
1312468266.02321553,0.17113665,0.52951795,-0.43018779
1312468266.07225370,0.17358057,0.52985615,-0.42842934
1312468266.12307882,0.17174689,0.53154844,-0.42895326
1312468266.16026950,0.17183140,0.52899706,-0.43014359
1312468266.22406483,0.17342015,0.53142285,-0.43087938
1312468266.27120066,0.17324987,0.53153378,-0.42913589
1312468266.32311583,0.17155500,0.53127950,-0.42761296
1312468266.37123346,0.17343120,0.53126794,-0.42844865
1312468266.42310405,0.17174685,0.53052443,-0.42908049
1312468266.47180104,0.17282821,0.53038806,-0.42942157
1312468266.52411914,0.17072202,0.52975404,-0.42791963
1312468266.57219958,0.17451876,0.53138632,-0.42865637
1312468266.62415504,0.17058316,0.53067660,-0.43009371
1312468266.67123699,0.17399298,0.53113168,-0.42828012
1312468266.72307515,0.17184484,0.53040254,-0.42974859
1312468266.77111435,0.17287269,0.52976435,-0.43103358
1312468266.82040358,0.16964996,0.53078461,-0.42731488
1312468266.87114596,0.17423320,0.53049535,-0.42893609
1312468266.92409086,0.17179556,0.53245997,-0.43030673
1312468266.97218180,0.17017598,0.53080809,-0.42998335
1312468267.02306867,0.17197132,0.52897030,-0.42784128
1312468267.07211351,0.17235938,0.53206730,-0.43013611
1312468267.12307119,0.17166424,0.52974743,-0.42826977
1312468267.16422415,0.17268395,0.53115886,-0.42943576
1312468267.22312498,0.17362510,0.53025645,-0.42991412
1312468267.27109981,0.17353022,0.53101778,-0.42911574
1312468267.32408023,0.17160842,0.52973330,-0.42692348
1312468267.37108517,0.17309426,0.53166676,-0.42941579
1312468267.42309046,0.17201692,0.53026640,-0.42919782
1312468267.47110319,0.17333335,0.52911067,-0.43032724
1312468267.52320313,0.17080969,0.52886605,-0.42885244
1312468267.57121062,0.17375612,0.53217620,-0.42978606
1312468267.62408113,0.17163233,0.52962554,-0.42881048
1312468267.66422153,0.17372689,0.52882898,-0.42841312
1312468267.72307968,0.17155933,0.53053552,-0.42990109
1312468267.77119899,0.17300346,0.53191531,-0.42861328
1312468267.82313180,0.17172384,0.52845603,-0.42744693
1312468267.87111568,0.17291258,0.53011590,-0.42806521
1312468267.92320156,0.17146717,0.52909547,-0.42706183
1312468267.97126961,0.17338386,0.53102100,-0.42925918
1312468268.02421522,0.17068778,0.52909571,-0.42629737
1312468268.07108068,0.17384626,0.52931809,-0.42638576
1312468268.12358975,0.17169410,0.53012574,-0.42773113
1312468268.17120957,0.17378768,0.53048134,-0.42720759
1312468268.22306418,0.17069533,0.53103912,-0.42820075
1312468268.27112365,0.17268059,0.53075063,-0.42727381
1312468268.32313514,0.16981867,0.53024030,-0.42460218
1312468268.37223601,0.17261650,0.52971411,-0.42619020
1312468268.42362309,0.17226289,0.53137130,-0.42500874
1312468268.47121310,0.17270637,0.53164172,-0.42673928
1312468268.52311945,0.17138948,0.52893269,-0.42382652
1312468268.57229567,0.17173530,0.53114182,-0.42692676
1312468268.62411308,0.17121050,0.52973497,-0.42667669
1312468268.67119575,0.17254522,0.52957487,-0.42511374
1312468268.72307301,0.17054112,0.52830613,-0.42427582
1312468268.77108812,0.17411639,0.53008401,-0.42637590
1312468268.82317615,0.17068350,0.53086370,-0.42388204
1312468268.87119770,0.17360094,0.53059542,-0.42573494
1312468268.92308378,0.17237628,0.53035039,-0.42553422
1312468268.97224426,0.17201117,0.52829784,-0.42500016
1312468269.02311492,0.17147720,0.52906871,-0.42463210
1312468269.07121158,0.17384428,0.53059846,-0.42626059
1312468269.12316942,0.17022620,0.53192562,-0.42675030
1312468269.17111588,0.17159304,0.53063220,-0.42706612
1312468269.22311711,0.17200089,0.52855581,-0.42513764
1312468269.27126575,0.17182784,0.52984411,-0.42556220
1312468269.32335114,0.17142762,0.53033340,-0.42302522
1312468269.37122726,0.17301242,0.53099275,-0.42631182
1312468269.42327428,0.17141351,0.53087294,-0.42545906
1312468269.47111630,0.17519128,0.52890003,-0.42468533
1312468269.52304792,0.17063814,0.52933639,-0.42481771
1312468269.57110763,0.17356290,0.53124267,-0.42628178
1312468269.62021303,0.17108372,0.53037441,-0.42641899
1312468269.66311622,0.17456995,0.53135169,-0.42554951
1312468269.72324443,0.17182001,0.53268641,-0.42760819
1312468269.77219081,0.17458953,0.53198791,-0.42514834
1312468269.82308459,0.17160091,0.52881390,-0.42489290
1312468269.87212491,0.17196086,0.53048342,-0.42555931
1312468269.92311192,0.17338638,0.53007483,-0.42479888
1312468269.96325541,0.17284751,0.53023154,-0.42685542
1312468270.02317786,0.17311253,0.53163844,-0.42685065
1312468270.07154989,0.17236708,0.53150415,-0.42554346
1312468270.12022042,0.17148277,0.53229249,-0.42641032
1312468270.17112112,0.17250720,0.53022218,-0.42566061
1312468270.22308564,0.17034547,0.53036678,-0.42497739
1312468270.27169633,0.17310418,0.52959204,-0.42724052
1312468270.32311606,0.17073625,0.53126246,-0.42523137
1312468270.37113380,0.17379080,0.53112072,-0.42707729
1312468270.42409039,0.17203109,0.53075081,-0.42663679
1312468270.47112203,0.17102399,0.52961785,-0.42749628
1312468270.52412367,0.17096788,0.52881092,-0.42398500
1312468270.57121110,0.17316738,0.53280479,-0.42807072
1312468270.62307477,0.17132296,0.53089029,-0.42694879
1312468270.67222548,0.17366913,0.53111917,-0.42681444
1312468270.72352123,0.17006952,0.53116280,-0.42715845
1312468270.77189922,0.17289418,0.53242344,-0.42808369
1312468270.82320642,0.16985895,0.52808142,-0.42647272
1312468270.87121058,0.17314881,0.53204030,-0.42847085
1312468270.92310786,0.17264771,0.53178096,-0.42768830
1312468270.97119808,0.17453901,0.53007764,-0.42621639
1312468271.02309418,0.17187440,0.52998799,-0.42704493
1312468271.07111382,0.17211366,0.53050387,-0.42757472
1312468271.12321043,0.17044064,0.53039825,-0.42794082
1312468271.17120910,0.17338687,0.52961242,-0.42938334
1312468271.22319865,0.17129749,0.53079200,-0.42964831
1312468271.27120042,0.17396277,0.52893662,-0.42678097
1312468271.32379460,0.17131053,0.52935666,-0.42734274
1312468271.37221098,0.17442696,0.53176308,-0.42785490
1312468271.42310286,0.17139110,0.53039008,-0.42815551
1312468271.47120833,0.17200148,0.53014135,-0.42946765
1312468271.52324891,0.17077580,0.53002453,-0.42926797
1312468271.57180834,0.17278400,0.53078049,-0.43010178
1312468271.62323904,0.17218900,0.53013027,-0.42864704
1312468271.67113304,0.17442714,0.53050786,-0.43027434
1312468271.72321296,0.17041385,0.52963537,-0.42847636
1312468271.77192450,0.17447761,0.53139424,-0.42933351
1312468271.82306099,0.17083347,0.53103751,-0.42819273
1312468271.87208748,0.17297463,0.53140885,-0.42915091
1312468271.92367649,0.17263217,0.52960789,-0.42821258
1312468271.97221160,0.17227361,0.52962691,-0.42958292
1312468272.02318668,0.17030320,0.52845490,-0.42591003
1312468272.07216954,0.17225213,0.53231901,-0.42960447
1312468272.12334418,0.17176126,0.53077769,-0.42881167
1312468272.17120147,0.17329097,0.53050196,-0.42858595
1312468272.22310424,0.17188185,0.52988344,-0.42920277
1312468272.27121639,0.17068501,0.53027308,-0.42846546
1312468272.32310581,0.17023218,0.52808446,-0.42712581
1312468272.37112379,0.17353016,0.52999377,-0.42924294
1312468272.42321229,0.17158817,0.53104198,-0.42936346
1312468272.47122073,0.17339623,0.53153062,-0.42899242
1312468272.52410769,0.17213421,0.52998793,-0.42729974
1312468272.57122374,0.17224175,0.53052902,-0.42999640
1312468272.62310076,0.17062943,0.53002775,-0.42941141
1312468272.66367841,0.17251280,0.52911878,-0.43023995
1312468272.72330594,0.17451048,0.53036392,-0.42891902
1312468272.77109480,0.17287976,0.53217018,-0.42835250
1312468272.82306790,0.17092805,0.52948338,-0.42682612
1312468272.87109709,0.17260759,0.53166062,-0.42836443
1312468272.92017221,0.17166965,0.52989924,-0.43042964
1312468272.97109747,0.17140774,0.52913171,-0.43030411
1312468273.02357721,0.17092931,0.52912396,-0.42911732
1312468273.07112026,0.17194182,0.53040880,-0.43041772
1312468273.12022066,0.17035317,0.53003097,-0.42942747
1312468273.17222285,0.17426851,0.53204942,-0.43043011
1312468273.22311378,0.17146036,0.53180963,-0.42910680
1312468273.27113223,0.17342809,0.53062850,-0.42857894
1312468273.32408667,0.17084363,0.52873158,-0.42830971
1312468273.37112117,0.17362724,0.53204805,-0.42965764
1312468273.42308116,0.17146644,0.53001648,-0.42922786
1312468273.47112131,0.17278808,0.53026772,-0.43009770
1312468273.52324033,0.17106023,0.52899575,-0.42924371
1312468273.57120895,0.17448476,0.53049684,-0.42932633
1312468273.62323880,0.17155807,0.53089494,-0.42760989
1312468273.66320133,0.17206241,0.52951455,-0.43080878
1312468273.72414231,0.17221257,0.52820575,-0.42849624
1312468273.77120018,0.17423324,0.53151935,-0.42880887
1312468273.82308078,0.16975817,0.52938074,-0.42797270
1312468273.87121344,0.17174792,0.53142023,-0.42895225
1312468273.92368674,0.17272715,0.53089458,-0.42875654
1312468273.97214365,0.17203231,0.52936745,-0.42905521
1312468274.02307248,0.17081486,0.52924907,-0.42872009
1312468274.07119989,0.17340988,0.53168082,-0.43101686
1312468274.12311864,0.17260671,0.52950966,-0.43091214
1312468274.17109323,0.17353937,0.52884007,-0.42923373
1312468274.22307920,0.17159736,0.52988821,-0.42935425
1312468274.27206898,0.17277673,0.52962989,-0.43036342
1312468274.32315588,0.17165810,0.53051662,-0.42827594
1312468274.37190604,0.17346334,0.53115863,-0.43020019
1312468274.42310071,0.17129232,0.53040898,-0.42978066
1312468274.47216129,0.17358677,0.53011096,-0.42829597
1312468274.52305269,0.17122306,0.52898943,-0.42882940
1312468274.57107162,0.17284390,0.53028190,-0.43144396
1312468274.62308669,0.17064799,0.53079218,-0.42901129
1312468274.66336131,0.17319010,0.52975327,-0.43034038
1312468274.72320914,0.17204288,0.52990228,-0.43108273
1312468274.76308227,0.17161724,0.53131729,-0.43111810
1312468274.82320523,0.17322206,0.53089911,-0.42967248
1312468274.87164927,0.17358196,0.53154474,-0.43046612
1312468274.92320251,0.17095207,0.53142363,-0.42845866
1312468274.97113895,0.17267771,0.52988005,-0.42969635
1312468275.02350736,0.17167175,0.53066683,-0.43030038
1312468275.07120895,0.17208433,0.53068715,-0.43257061
1312468275.12336683,0.17285724,0.52963930,-0.43130341
1312468275.17223120,0.17410973,0.53051901,-0.43096754
1312468275.22310781,0.16968133,0.53057230,-0.43135968
1312468275.27122045,0.17408401,0.53065193,-0.43137485
1312468275.32392621,0.17154998,0.52861732,-0.43029198
1312468275.37109447,0.17147702,0.53055131,-0.43125537
1312468275.42306113,0.17243877,0.53015697,-0.43133157
1312468275.47108459,0.17324904,0.53040683,-0.43155634
1312468275.52316523,0.17023277,0.52967006,-0.43145582
1312468275.57122493,0.17381826,0.53016597,-0.43354565
1312468275.62310934,0.17135836,0.52914119,-0.43111670
1312468275.66026449,0.17273065,0.52902359,-0.43346515
1312468275.72363949,0.17312323,0.52989405,-0.43142486
1312468275.77109003,0.17365526,0.53142750,-0.43154049
1312468275.82311177,0.17032020,0.52901328,-0.43009639
1312468275.87121224,0.17520761,0.53140342,-0.43091053
1312468275.92309690,0.17180699,0.52979463,-0.43271488
1312468275.97121787,0.17304511,0.53144503,-0.43252060
1312468276.02363515,0.17017889,0.52735150,-0.43036196
1312468276.07112122,0.17332439,0.53003323,-0.43262869
1312468276.12364578,0.17211215,0.53132182,-0.43203402
1312468276.17110062,0.17435919,0.52975291,-0.43148705
1312468276.22413969,0.17196573,0.53030103,-0.43230468
1312468276.27110767,0.17359559,0.53169495,-0.43249056
1312468276.32415152,0.17109846,0.52709329,-0.43111631
1312468276.37110758,0.17159274,0.53006679,-0.43394384
1312468276.42330647,0.17078866,0.53007179,-0.43358567
1312468276.47213364,0.17346354,0.52990341,-0.43261963
1312468276.52409077,0.17199242,0.52901596,-0.43202356
1312468276.57112503,0.17161846,0.52993387,-0.43353650
1312468276.62305975,0.17257173,0.52977234,-0.43145591
1312468276.66321158,0.17389849,0.52938265,-0.43232062
1312468276.72320318,0.17328624,0.52863252,-0.43342999
1312468276.77180791,0.17274728,0.53209239,-0.43281263
1312468276.82312202,0.17145841,0.52876288,-0.43178272
1312468276.87114549,0.17329459,0.53067893,-0.43304011
1312468276.92367458,0.17127702,0.52800477,-0.43259719
1312468276.97112751,0.17397700,0.53067243,-0.43313542
1312468277.02306914,0.17028727,0.52901959,-0.43063813
1312468277.07225537,0.17203489,0.52967262,-0.43351039
1312468277.12354398,0.17223887,0.52965844,-0.43241894
1312468277.17120647,0.17294736,0.53133577,-0.43414474
1312468277.22337461,0.17181721,0.52851266,-0.43270463
1312468277.27112317,0.17503957,0.53000277,-0.43158442
1312468277.32384825,0.16931525,0.52967191,-0.43069941
1312468277.37119746,0.17348522,0.53130728,-0.43208921
1312468277.42310882,0.17196676,0.53017282,-0.43230367
1312468277.47120786,0.17303883,0.52914226,-0.43290842
1312468277.52406478,0.17103374,0.52902567,-0.43194428
1312468277.57119775,0.17522533,0.53104091,-0.43293089
1312468277.62362361,0.17349124,0.52849013,-0.43233749
1312468277.66423965,0.17363568,0.53079128,-0.43194166
1312468277.72342920,0.17334074,0.52798206,-0.43261227
1312468277.77221942,0.17377074,0.53117424,-0.43193671
1312468277.82315707,0.17153248,0.52874869,-0.43056387
1312468277.87119651,0.17182352,0.53081542,-0.43231681
1312468277.92319822,0.17291209,0.53080565,-0.43252349
1312468277.97119737,0.17322849,0.53092277,-0.43183133
1312468278.02321219,0.17200750,0.52732420,-0.42971593
1312468278.07120895,0.17373264,0.53079754,-0.43261078
1312468278.12407899,0.17244597,0.53028357,-0.43119717
1312468278.17119884,0.17158841,0.53081077,-0.43165570
1312468278.22308183,0.17153044,0.52900505,-0.43056592
1312468278.27106619,0.17387666,0.53025794,-0.43030438
